Location: Cuiry
(49.3858°N, 3.7708°E)
Time: 14:11:02
(UTC+00:00)

SAR-Lupe-4 - Pass Details

Date: 12 January 2026
Orbit: 480 x 483 km, 98.1° (Epoch: 10 January)

Event Time Altitude Azimuth Distance (km) Brightness Sun altitude
Rises 16:58:00 0° 142° (SE) 2,536 7.1 -7.7°
Reaches altitude 10° 17:00:10 10° 133° (SE) 1,662 6.0 -8.0°
Maximum altitude 17:03:25 33° 68° (ENE) 828 4.2 -8.5°
Drops below altitude 10° 17:06:41 10° 3° (N) 1,676 6.0 -9.0°
Sets 17:08:52 0° 354° (N) 2,562 7.1 -9.3°
